| time (UTC) | temp F | wind direction | speed knots | gust knots | rain 1hr in | rain 24hr in | rain mn in | humidity % | barometer mb |
| 20260503222652 | 88 | 300 | 1.7 | 1.7 | 0.00 | 0.00 | 0.00 | 31 | 1009.0 |
| 20260503222150 | 88 | 297 | 0.0 | 0.9 | 0.00 | 0.00 | 0.00 | 32 | 1009.3 |
| 20260503221648 | 88 | 294 | 0.0 | 0.0 | 0.00 | 0.00 | 0.00 | 31 | 1009.2 |
| 20260503221145 | 88 | 310 | 0.9 | 0.9 | 0.00 | 0.00 | 0.00 | 30 | 1009.3 |
| 20260503220641 | 88 | 298 | 1.7 | 1.7 | 0.00 | 0.00 | 0.00 | 31 | 1009.2 |
| 20260503220138 | 88 | 301 | 1.7 | 1.7 | 0.00 | 0.00 | 0.00 | 31 | 1009.4 |
| 20260503215636 | 88 | 303 | 0.0 | 0.9 | 0.00 | 0.00 | 0.00 | 32 | 1009.7 |
| 20260503215132 | 88 | 313 | 0.9 | 0.9 | 0.00 | 0.00 | 0.00 | 30 | 1009.4 |
| 20260503214631 | 88 | 296 | 0.0 | 0.0 | 0.00 | 0.00 | 0.00 | 35 | 1009.7 |
| 20260503214126 | 87 | 300 | 0.9 | 0.9 | 0.00 | 0.00 | 0.00 | 36 | 1009.5 |
| 20260503213626 | 87 | 292 | 0.0 | 0.9 | 0.00 | 0.00 | 0.00 | 37 | 1009.8 |
| 20260503213122 | 87 | 284 | 0.0 | 0.0 | 0.00 | 0.00 | 0.00 | 35 | 1009.8 |
| 20260503212620 | 87 | 263 | 1.7 | 2.6 | 0.00 | 0.00 | 0.00 | 37 | 1009.7 |
| 20260503212117 | 87 | 308 | 0.0 | 0.0 | 0.00 | 0.00 | 0.00 | 40 | 1010.0 |
| 20260503211614 | 87 | 305 | 0.9 | 1.7 | 0.00 | 0.00 | 0.00 | 37 | 1010.0 |
| 20260503211110 | 86 | 293 | 0.9 | 1.7 | 0.00 | 0.00 | 0.00 | 36 | 1010.0 |
| 20260503210606 | 86 | 261 | 0.9 | 1.7 | 0.00 | 0.00 | 0.00 | 37 | 1010.1 |
| 20260503205559 | 86 | 220 | 0.9 | 1.7 | 0.00 | 0.00 | 0.00 | 39 | 1010.4 |
| 20260503205055 | 86 | 317 | 2.6 | 2.6 | 0.00 | 0.00 | 0.00 | 40 | 1010.4 |
| 20260503204552 | 85 | 314 | 0.0 | 0.9 | 0.00 | 0.00 | 0.00 | 39 | 1010.5 |
| 20260503204049 | 86 | 296 | 0.9 | 0.9 | 0.00 | 0.00 | 0.00 | 40 | 1010.4 |
| 20260503203546 | 86 | 309 | 2.6 | 4.3 | 0.00 | 0.00 | 0.00 | 39 | 1010.5 |
| 20260503203043 | 86 | 225 | 0.9 | 0.9 | 0.00 | 0.00 | 0.00 | 41 | 1010.5 |
| 20260503202541 | 85 | 271 | 0.9 | 0.9 | 0.00 | 0.00 | 0.00 | 39 | 1010.5 |
| 20260503202039 | 86 | 145 | 1.7 | 1.7 | 0.00 | 0.00 | 0.00 | 41 | 1010.7 |
| 20260503201537 | 84 | 140 | 1.7 | 1.7 | 0.00 | 0.00 | 0.00 | 41 | 1011.0 |
| 20260503201034 | 85 | 292 | 0.9 | 0.9 | 0.00 | 0.00 | 0.00 | 42 | 1010.6 |
| 20260503200530 | 84 | 289 | 0.0 | 0.0 | 0.00 | 0.00 | 0.00 | 43 | 1010.7 |
| 20260503200027 | 84 | 138 | 1.7 | 2.6 | 0.00 | 0.00 | 0.00 | 44 | 1010.8 |
| 20260503195524 | 85 | 290 | 0.9 | 0.9 | 0.00 | 0.00 | 0.00 | 43 | 1010.8 |
| 20260503195021 | 84 | 301 | 0.9 | 1.7 | 0.00 | 0.00 | 0.00 | 43 | 1011.0 |
| 20260503194518 | 84 | 273 | 0.9 | 0.9 | 0.00 | 0.00 | 0.00 | 45 | 1011.4 |
| 20260503194018 | 82 | 295 | 0.9 | 0.9 | 0.00 | 0.00 | 0.00 | 47 | 1011.2 |
| 20260503193515 | 82 | 286 | 2.6 | 2.6 | 0.00 | 0.00 | 0.00 | 45 | 1011.3 |
| 20260503193010 | 83 | 313 | 0.9 | 1.7 | 0.00 | 0.00 | 0.00 | 44 | 1011.4 |
| 20260503192506 | 83 | 110 | 0.9 | 0.9 | 0.00 | 0.00 | 0.00 | 44 | 1011.4 |
| 20260503192002 | 82 | 273 | 0.0 | 0.9 | 0.00 | 0.00 | 0.00 | 48 | 1011.5 |
| 20260503191459 | 82 | 257 | 0.9 | 0.9 | 0.00 | 0.00 | 0.00 | 47 | 1011.4 |
| 20260503190955 | 80 | 284 | 0.0 | 0.9 | 0.00 | 0.00 | 0.00 | 49 | 1011.6 |
| 20260503190453 | 81 | 294 | 0.9 | 0.9 | 0.00 | 0.00 | 0.00 | 47 | 1011.6 |
| 20260503185950 | 82 | 10 | 0.9 | 0.9 | 0.00 | 0.00 | 0.00 | 47 | 1011.7 |
| 20260503185446 | 80 | 267 | 0.9 | 0.9 | 0.00 | 0.00 | 0.00 | 48 | 1011.7 |
| 20260503184946 | 79 | 262 | 0.9 | 0.9 | 0.00 | 0.00 | 0.00 | 51 | 1011.9 |
| 20260503184443 | 79 | 122 | 0.9 | 0.9 | 0.00 | 0.00 | 0.00 | 50 | 1011.8 |
| 20260503183939 | 79 | 282 | 0.0 | 0.0 | 0.00 | 0.00 | 0.00 | 50 | 1011.9 |
| 20260503183436 | 78 | 184 | 0.9 | 0.9 | 0.00 | 0.00 | 0.00 | 51 | 1012.1 |
| 20260503182933 | 78 | 311 | 0.0 | 0.9 | 0.00 | 0.00 | 0.00 | 53 | 1012.2 |
| 20260503182432 | 77 | 289 | 0.9 | 0.9 | 0.00 | 0.00 | 0.00 | 51 | 1012.3 |
| 20260503181929 | 77 | 285 | 0.9 | 1.7 | 0.00 | 0.00 | 0.00 | 53 | 1012.1 |
| 20260503181426 | 77 | 164 | 0.9 | 1.7 | 0.00 | 0.00 | 0.00 | 53 | 1012.3 |
| 20260503180921 | 77 | 174 | 0.9 | 1.7 | 0.00 | 0.00 | 0.00 | 53 | 1012.3 |
| 20260503180420 | 76 | 307 | 0.9 | 0.9 | 0.00 | 0.00 | 0.00 | 53 | 1012.4 |
| 20260503175916 | 76 | 315 | 1.7 | 1.7 | 0.00 | 0.00 | 0.00 | 56 | 1012.5 |
| 20260503175415 | 75 | 277 | 0.0 | 0.9 | 0.00 | 0.00 | 0.00 | 58 | 1012.2 |
| 20260503174910 | 75 | 86 | 1.7 | 2.6 | 0.00 | 0.00 | 0.00 | 57 | 1012.4 |
| 20260503174408 | 75 | 141 | 1.7 | 1.7 | 0.00 | 0.00 | 0.00 | 57 | 1012.5 |
| 20260503173903 | 74 | 276 | 0.9 | 0.9 | 0.00 | 0.00 | 0.00 | 57 | 1012.4 |
| 20260503173359 | 73 | 296 | 0.9 | 0.9 | 0.00 | 0.00 | 0.00 | 60 | 1012.8 |
| 20260503172856 | 73 | 177 | 0.9 | 1.7 | 0.00 | 0.00 | 0.00 | 59 | 1012.4 |
| 20260503172354 | 73 | 308 | 0.9 | 0.9 | 0.00 | 0.00 | 0.00 | 61 | 1012.9 |
| 20260503171849 | 74 | 301 | 1.7 | 1.7 | 0.00 | 0.00 | 0.00 | 60 | 1012.8 |
| 20260503171346 | 73 | 298 | 0.0 | 0.0 | 0.00 | 0.00 | 0.00 | 59 | 1012.8 |
| 20260503170844 | 73 | 291 | 0.9 | 0.9 | 0.00 | 0.00 | 0.00 | 62 | 1012.7 |
| 20260503170340 | 72 | 214 | 0.0 | 0.9 | 0.00 | 0.00 | 0.00 | 62 | 1012.8 |
| 20260503150732 | 58 | 297 | 0.9 | 0.9 | 0.00 | 0.00 | 0.00 | 99 | 1013.3 |
| 20260503150229 | 57 | 303 | 0.0 | 0.0 | 0.00 | 0.00 | 0.00 | 99 | 1013.3 |
| 20260503140153 | 52 | 299 | 0.0 | 0.0 | 0.00 | 0.00 | 0.00 | 99 | 1013.0 |
| 20260503131117 | 50 | 299 | 0.0 | 0.0 | 0.00 | 0.00 | 0.00 | 99 | 1012.9 |
| 20260503130614 | 50 | 299 | 0.0 | 0.0 | 0.00 | 0.00 | 0.00 | 99 | 1012.8 |
| 20260503130112 | 50 | 299 | 0.0 | 0.0 | 0.00 | 0.00 | 0.00 | 99 | 1012.6 |
| 20260503110504 | 51 | 299 | 0.0 | 0.0 | 0.00 | 0.00 | 0.00 | 99 | 1013.1 |
| 20260503090350 | 53 | 299 | 0.0 | 0.0 | 0.00 | 0.00 | 0.00 | 99 | 1013.5 |
| 20260503081317 | 54 | 298 | 0.0 | 0.0 | 0.00 | 0.00 | 0.00 | 99 | 1013.5 |
| 20260503080814 | 54 | 299 | 0.0 | 0.0 | 0.00 | 0.00 | 0.00 | 99 | 1013.4 |
| 20260503080311 | 54 | 299 | 0.0 | 0.0 | 0.00 | 0.00 | 0.00 | 99 | 1013.4 |
| 20260503072748 | 55 | 299 | 0.0 | 0.0 | 0.00 | 0.00 | 0.00 | 99 | 1013.5 |
| 20260503072245 | 55 | 299 | 0.0 | 0.0 | 0.00 | 0.00 | 0.00 | 99 | 1013.6 |
| 20260503071741 | 55 | 299 | 0.0 | 0.0 | 0.00 | 0.00 | 0.00 | 99 | 1013.7 |
| 20260503071238 | 55 | 299 | 0.0 | 0.0 | 0.00 | 0.00 | 0.00 | 98 | 1013.5 |
| 20260503070734 | 55 | 299 | 0.0 | 0.0 | 0.00 | 0.00 | 0.00 | 98 | 1013.6 |
| 20260503070232 | 55 | 299 | 0.0 | 0.0 | 0.00 | 0.00 | 0.00 | 97 | 1013.6 |
| 20260503060157 | 58 | 299 | 0.0 | 0.0 | 0.00 | 0.00 | 0.00 | 92 | 1013.5 |
| 20260503054644 | 59 | 299 | 0.0 | 0.0 | 0.00 | 0.00 | 0.00 | 91 | 1013.7 |
| 20260503054141 | 59 | 299 | 0.0 | 0.0 | 0.00 | 0.00 | 0.00 | 90 | 1013.4 |
| 20260503053639 | 59 | 299 | 0.0 | 0.0 | 0.00 | 0.00 | 0.00 | 90 | 1013.4 |
| 20260503053138 | 59 | 299 | 0.0 | 0.0 | 0.00 | 0.00 | 0.00 | 89 | 1013.4 |
| 20260503052633 | 60 | 299 | 0.0 | 0.0 | 0.00 | 0.00 | 0.00 | 89 | 1013.4 |
| 20260503052130 | 60 | 303 | 0.9 | 0.9 | 0.00 | 0.00 | 0.00 | 88 | 1013.3 |
| 20260503051625 | 60 | 303 | 0.0 | 0.0 | 0.00 | 0.00 | 0.00 | 87 | 1013.5 |
| 20260503051123 | 61 | 303 | 0.0 | 0.0 | 0.00 | 0.00 | 0.00 | 86 | 1013.4 |
| 20260503050620 | 61 | 303 | 0.0 | 0.0 | 0.00 | 0.00 | 0.00 | 86 | 1013.5 |
| 20260503050116 | 61 | 303 | 0.0 | 0.0 | 0.00 | 0.00 | 0.00 | 85 | 1013.2 |
| 20260503045614 | 62 | 303 | 0.0 | 0.9 | 0.00 | 0.00 | 0.00 | 84 | 1013.7 |
| 20260503045111 | 62 | 299 | 0.9 | 0.9 | 0.00 | 0.00 | 0.00 | 83 | 1013.4 |
| 20260503044607 | 62 | 308 | 0.9 | 0.9 | 0.00 | 0.00 | 0.00 | 83 | 1013.7 |
| 20260503044105 | 62 | 287 | 0.9 | 0.9 | 0.00 | 0.00 | 0.00 | 83 | 1013.7 |
| 20260503043601 | 61 | 204 | 0.9 | 1.7 | 0.00 | 0.00 | 0.00 | 84 | 1013.9 |
| 20260503043058 | 61 | 293 | 0.0 | 0.9 | 0.00 | 0.00 | 0.00 | 86 | 1013.7 |
| 20260503042555 | 60 | 293 | 0.0 | 0.9 | 0.00 | 0.00 | 0.00 | 88 | 1013.5 |
| 20260503042051 | 60 | 293 | 0.0 | 0.0 | 0.00 | 0.00 | 0.00 | 87 | 1013.6 |
| 20260503041548 | 60 | 293 | 0.0 | 0.0 | 0.00 | 0.00 | 0.00 | 87 | 1013.4 |
| 20260503041046 | 60 | 293 | 0.0 | 0.0 | 0.00 | 0.00 | 0.00 | 87 | 1013.3 |
| 20260503040543 | 61 | 293 | 0.0 | 0.0 | 0.00 | 0.00 | 0.00 | 87 | 1013.6 |
| 20260503040040 | 61 | 293 | 0.0 | 0.0 | 0.00 | 0.00 | 0.00 | 86 | 1013.3 |
| 20260503035536 | 61 | 293 | 0.0 | 0.0 | 0.00 | 0.00 | 0.00 | 85 | 1013.6 |
| 20260503035034 | 61 | 293 | 0.0 | 0.0 | 0.00 | 0.00 | 0.00 | 84 | 1013.5 |
| 20260503034531 | 62 | 293 | 0.0 | 0.0 | 0.00 | 0.00 | 0.00 | 83 | 1013.6 |
| 20260503034028 | 62 | 293 | 0.0 | 0.0 | 0.00 | 0.00 | 0.00 | 83 | 1013.5 |
| 20260503033526 | 63 | 293 | 0.0 | 0.0 | 0.00 | 0.00 | 0.00 | 82 | 1013.4 |
| 20260503033023 | 63 | 293 | 0.0 | 0.0 | 0.00 | 0.00 | 0.00 | 81 | 1013.4 |
| 20260503032522 | 63 | 293 | 0.0 | 0.0 | 0.00 | 0.00 | 0.00 | 81 | 1013.4 |
| 20260503032019 | 63 | 293 | 0.0 | 0.0 | 0.00 | 0.00 | 0.00 | 79 | 1013.4 |
| 20260503031517 | 64 | 293 | 0.0 | 0.0 | 0.00 | 0.00 | 0.00 | 80 | 1013.2 |
| 20260503031014 | 64 | 293 | 0.0 | 0.0 | 0.00 | 0.00 | 0.00 | 78 | 1013.4 |
| 20260503030510 | 64 | 293 | 0.0 | 0.0 | 0.00 | 0.00 | 0.00 | 78 | 1013.0 |
| 20260503030007 | 64 | 293 | 0.0 | 0.0 | 0.00 | 0.00 | 0.00 | 77 | 1013.0 |
| 20260503025503 | 64 | 293 | 0.0 | 0.0 | 0.00 | 0.00 | 0.00 | 78 | 1013.3 |
| 20260503025001 | 64 | 293 | 0.0 | 0.0 | 0.00 | 0.00 | 0.00 | 77 | 1013.4 |
| 20260503024457 | 65 | 293 | 0.0 | 0.0 | 0.00 | 0.00 | 0.00 | 77 | 1013.2 |
| 20260503023955 | 65 | 294 | 0.0 | 0.0 | 0.00 | 0.00 | 0.00 | 76 | 1013.3 |
| 20260503023451 | 65 | 294 | 0.0 | 0.0 | 0.00 | 0.00 | 0.00 | 76 | 1013.4 |
| 20260503022948 | 65 | 299 | 0.0 | 0.0 | 0.00 | 0.00 | 0.00 | 75 | 1013.4 |
| 20260503022444 | 66 | 266 | 1.7 | 1.7 | 0.00 | 0.00 | 0.00 | 74 | 1013.6 |
| 20260503021940 | 66 | 291 | 0.0 | 0.9 | 0.00 | 0.00 | 0.00 | 74 | 1013.6 |
| 20260503021436 | 67 | 263 | 0.0 | 0.9 | 0.00 | 0.00 | 0.00 | 73 | 1013.5 |
| 20260503020934 | 67 | 268 | 0.9 | 0.9 | 0.00 | 0.00 | 0.00 | 72 | 1013.7 |
| 20260503020431 | 68 | 298 | 0.0 | 0.0 | 0.00 | 0.00 | 0.00 | 70 | 1013.4 |
| 20260503015927 | 69 | 285 | 0.0 | 0.9 | 0.00 | 0.00 | 0.00 | 69 | 1013.4 |
| 20260503015424 | 69 | 289 | 0.0 | 0.0 | 0.00 | 0.00 | 0.00 | 69 | 1012.8 |
| 20260503014920 | 70 | 290 | 0.0 | 0.0 | 0.00 | 0.00 | 0.00 | 69 | 1012.8 |
| 20260503014418 | 70 | 290 | 0.0 | 0.0 | 0.00 | 0.00 | 0.00 | 67 | 1012.5 |
| 20260503013916 | 70 | 290 | 0.0 | 0.0 | 0.00 | 0.00 | 0.00 | 67 | 1012.6 |
| 20260503013412 | 71 | 290 | 0.0 | 0.0 | 0.00 | 0.00 | 0.00 | 66 | 1012.5 |
| 20260503012909 | 71 | 290 | 0.0 | 0.0 | 0.00 | 0.00 | 0.00 | 65 | 1012.4 |
| 20260503012408 | 71 | 290 | 0.0 | 0.0 | 0.00 | 0.00 | 0.00 | 65 | 1012.5 |
| 20260503011903 | 72 | 291 | 0.0 | 0.0 | 0.00 | 0.00 | 0.00 | 64 | 1012.5 |
| 20260503011400 | 72 | 293 | 0.9 | 0.9 | 0.00 | 0.00 | 0.00 | 63 | 1012.3 |
| 20260503010857 | 72 | 299 | 0.9 | 0.9 | 0.00 | 0.00 | 0.00 | 60 | 1012.5 |
| 20260503010354 | 72 | 305 | 0.9 | 0.9 | 0.00 | 0.00 | 0.00 | 60 | 1012.2 |
| 20260503005851 | 72 | 305 | 1.7 | 1.7 | 0.00 | 0.00 | 0.00 | 60 | 1012.1 |
| 20260503005349 | 72 | 303 | 0.0 | 0.0 | 0.00 | 0.00 | 0.00 | 61 | 1012.2 |
| 20260503004844 | 72 | 303 | 0.0 | 0.9 | 0.00 | 0.00 | 0.00 | 60 | 1012.3 |
| 20260503004342 | 72 | 305 | 0.0 | 0.0 | 0.00 | 0.00 | 0.00 | 60 | 1012.5 |
| 20260503003839 | 73 | 301 | 0.0 | 0.9 | 0.00 | 0.00 | 0.00 | 59 | 1012.3 |
| 20260503003336 | 72 | 307 | 0.0 | 0.0 | 0.00 | 0.00 | 0.00 | 60 | 1012.4 |
| 20260503002833 | 73 | 164 | 1.7 | 2.6 | 0.00 | 0.00 | 0.00 | 59 | 1012.4 |
| 20260503002330 | 73 | 308 | 0.0 | 0.0 | 0.00 | 0.00 | 0.00 | 60 | 1012.4 |
| 20260503001827 | 72 | 326 | 0.0 | 0.0 | 0.00 | 0.00 | 0.00 | 58 | 1012.3 |
| 20260503001323 | 72 | 289 | 0.0 | 0.9 | 0.00 | 0.00 | 0.00 | 62 | 1012.2 |
| 20260503000820 | 71 | 269 | 0.9 | 0.9 | 0.00 | 0.00 | 0.00 | 60 | 1012.5 |
| 20260503000319 | 71 | 285 | 0.9 | 0.9 | 0.00 | 0.00 | 0.00 | 59 | 1012.6 |
| 20260502235815 | 71 | 311 | 0.9 | 1.7 | 0.00 | 0.00 | 0.00 | 60 | 1012.5 |
| 20260502235312 | 71 | 291 | 2.6 | 2.6 | 0.00 | 0.00 | 0.00 | 61 | 1012.6 |
| 20260502234809 | 70 | 324 | 0.0 | 0.0 | 0.00 | 0.00 | 0.00 | 60 | 1012.5 |
| 20260502234306 | 70 | 320 | 0.9 | 0.9 | 0.00 | 0.00 | 0.00 | 62 | 1012.6 |
| 20260502233802 | 69 | 292 | 0.0 | 0.0 | 0.00 | 0.00 | 0.00 | 62 | 1012.7 |
| 20260502233258 | 69 | 297 | 0.9 | 0.9 | 0.00 | 0.00 | 0.00 | 63 | 1012.7 |
| 20260502232755 | 69 | 318 | 0.9 | 1.7 | 0.00 | 0.00 | 0.00 | 62 | 1012.8 |
| 20260502232252 | 69 | 307 | 0.0 | 0.0 | 0.00 | 0.00 | 0.00 | 63 | 1012.9 |
| 20260502231748 | 69 | 293 | 1.7 | 1.7 | 0.00 | 0.00 | 0.00 | 63 | 1013.0 |
| 20260502231246 | 68 | 305 | 0.0 | 0.0 | 0.00 | 0.00 | 0.00 | 63 | 1013.1 |
| 20260502230744 | 68 | 290 | 2.6 | 2.6 | 0.00 | 0.00 | 0.00 | 65 | 1013.0 |
| 20260502230242 | 68 | 302 | 2.6 | 2.6 | 0.00 | 0.00 | 0.00 | 65 | 1013.1 |
| 20260502225739 | 68 | 293 | 0.9 | 1.7 | 0.00 | 0.00 | 0.00 | 65 | 1013.1 |
| 20260502225236 | 68 | 292 | 0.9 | 1.7 | 0.00 | 0.00 | 0.00 | 66 | 1013.4 |
| 20260502224732 | 68 | 297 | 0.0 | 0.0 | 0.00 | 0.00 | 0.00 | 67 | 1013.4 |
| 20260502224229 | 68 | 296 | 1.7 | 2.6 | 0.00 | 0.00 | 0.00 | 67 | 1013.3 |
| 20260502223726 | 68 | 295 | 0.0 | 0.9 | 0.00 | 0.00 | 0.00 | 67 | 1013.5 |
| 20260502223224 | 67 | 296 | 0.9 | 1.7 | 0.00 | 0.00 | 0.00 | 66 | 1013.5 |
| 20260502222721 | 67 | 303 | 1.7 | 1.7 | 0.00 | 0.00 | 0.00 | 66 | 1013.6 |